Location: Sternwarte Stuttgart
(48.7670°N, 9.1830°E)
Time: 07:29:21
(UTC+01:00)

Cosmos 2219 - Pass Details

Date: 24 January 2019
Orbit: 834 x 860 km, 71.1° (Epoch: 21 February)

Event Time Altitude Azimuth Distance (km) Brightness Sun altitude
Exits shadow 07:23:59 - 318° (NW) 2,965 5.5 -6.7°
Reaches altitude 10° 07:25:28 10° 311° (NW) 2,486 5.0 -6.5°
Maximum altitude 07:30:01 25° 258° (WSW) 1,645 4.3 -5.8°
Drops below altitude 10° 07:34:31 10° 205° (SSW) 2,458 5.6 -5.1°
Sets 07:37:19 0° 192° (SSW) 3,383 6.5 -4.7°
